User: anonymous   Login
Location: Napier
(39.4830°S, 176.9170°E)
Time: 10:04:33
(UTC+13:00)
Language:

Resurs 01 Rocket - Orbit

View from above orbital plane
View from above orbital plane
View from above satellite
View from above satellite

Ground track
Ground track

The orbit data is extracted from the following two-line orbital elements,

1 23343U 94074B   19082.10867321  .00000012  00000-0  91676-5 0  9994
2 23343  98.0644 132.2719 0007397 155.8686 257.0004 14.76769410311860
Epoch (UTC): 23 March 2019 02:36:29
Eccentricity: 0.0007397
inclination: 98.0644°
perigee height: 634 km
apogee height: 645 km
right ascension of ascending node: 132.2719°
argument of perigee: 155.8686°
revolutions per day: 14.76769410
mean anomaly at epoch: 257.0004°
orbit number at epoch: 31186

The dashed part of the orbit path shows where the satellite is in the earth's shadow,  

DLR